NUDATSat
1 42787U 17036Y 20170.94613886 .00001576 00000-0 66777-4 0 9996
2 42787 097.3043 226.2337 0012649 023.2881 336.8925 15.24539470165926
SUCHAI 1
1 42788U 17036Z 20170.84846989 .00000866 00000-0 38815-4 0 9991
2 42788 097.3017 225.3314 0012093 028.8925 331.2980 15.23773376166099
SKCUBE
1 42789U 17036AA 20170.82901871 .00000812 00000-0 36733-4 0 9990
2 42789 097.3012 225.1647 0011980 029.3644 330.8264 15.23614836166006
VZLUSAT 1
1 42790U 17036AB 20170.80387286 .00001078 00000-0 46597-4 0 9992
2 42790 097.3037 226.0922 0011418 027.7197 332.4647 15.24520725166054
VENTA 1
1 42791U 17036AC 20170.80309535 .00000773 00000-0 35148-4 0 9995
2 42791 097.3010 225.1819 0011673 030.0712 330.1194 15.23597496165996
Robusta 1B
1 42792U 17036AD 20170.58565101 .00000900 00000-0 40194-4 0 9993
2 42792 097.3016 225.1795 0011618 030.7841 329.4075 15.23803161165993
D-SAT
1 42794U 17036AF 20170.78418251 .00000120 00000-0 15808-4 0 9998
2 42794 097.4930 203.3743 0126165 001.3388 358.8144 14.91282010162893
TechnoSat
1 42829U 17042E 20170.69223757 .00000197 00000-0 25154-4 0 9998
2 42829 97.5201 52.4146 0012705 282.6511 77.3287 14.91103405159471
QIKCOM-1
1 42983U 98067NF 20170.84367784 .00002653 00000-0 36314-4 0 9990
2 42983 051.6394 298.4936 0004054 065.3334 294.8081 15.61584963150505
AO-91
1 43017U 17073E 20170.81056820 .00000535 00000-0 46483-4 0 9995
2 43017 097.7233 082.9936 0258190 046.1787 316.0457 14.78940141139360
EcAMSat
1 43019U 98067NG 20170.72031170 .00006081 00000-0 62953-4 0 9992
2 43019 51.6409 285.0011 0003907 51.7265 308.4082 15.66282533232997
PICSAT
1 43132U 18004X 20170.75858830 .00000927 00000-0 40698-4 0 9999
2 43132 097.4471 242.0915 0010898 055.5238 304.7027 15.24424161135253
AO-92
1 43137U 18004AC 20170.73155440 .00000672 00000-0 30549-4 0 9990
2 43137 97.4455 241.8838 0010541 57.6126 302.6129 15.24128677135236
TianYi 2
1 43155U 18008A 20170.87454076 .00000845 00000-0 53255-4 0 9997
2 43155 97.4469 239.9303 0018640 139.2882 346.8876 15.11640341133139
Zhou Enlai
1 43156U 18008B 20170.90235832 .00000138 00000-0 11975-4 0 9997
2 43156 97.4507 239.8060 0015617 136.8301 333.3924 15.11179520133098
TianYi 6
1 43158U 18008D 20170.79364488 .00000731 00000-0 47824-4 0 9997
2 43158 097.4457 238.7568 0014750 135.7397 003.8952 15.10719460133020
S-Net G
1 43186U 18014G 20170.85226036 -.00000426 00000-0 -32155-4 0 9992
2 43186 097.6949 078.6696 0009908 214.2956 145.7627 14.96814088129907
S-Net H
1 43187U 18014H 20170.85208394 -.00000426 00000-0 -32162-4 0 9998
2 43187 097.6947 078.6479 0009899 214.2439 145.8145 14.96813970129905
S-Net J
1 43188U 18014J 20170.71825351 -.00000404 00000-0 -30230-4 0 9992
2 43188 097.6950 078.5459 0009872 214.8039 145.2538 14.96813979129886
S-Net K
1 43189U 18014K 20170.71867492 -.00000417 00000-0 -31329-4 0 9999
2 43189 097.6946 078.5118 0009896 214.6696 145.3882 14.96813181128435
FMN 1
1 43192U 18015A 20170.90852943 .00001320 00000-0 54593-4 0 9990
2 43192 097.4434 300.3899 0017414 085.4730 031.7397 15.25627243132124
Shaonian Xing
1 43199U 18015H 20170.90232308 .00001007 00000-0 42142-4 0 9993
2 43199 097.4217 298.6525 0018303 093.7577 025.6599 15.25781845132185
UBAKUSAT
1 43467U 98067NQ 20170.87388155 .00020954 00000-0 13804-3 0 9998
2 43467 051.6350 274.4195 0001485 007.4170 352.6852 15.75613534120335
EnduroSat One
1 43551U 98067NZ 20170.69149682 .00042632 00000-0 20912-3 0 9997
2 43551 051.6337 272.3972 0001906 049.6209 310.4960 15.81783074110574
EQUISat
1 43552U 98067PA 20170.68860185 .00022921 00000-0 15809-3 0 9993
2 43552 051.6346 282.3016 0003078 089.7111 270.4241 15.74483261110400
UiTMSat 1
1 43589U 98067PD 20170.70960208 .00031952 00000-0 19242-3 0 9992
2 43589 51.6347 280.0022 0001792 108.5925 251.5270 15.77394116106171
Maya 1
1 43590U 98067PE 20170.57574531 .00032704 00000-0 19696-3 0 9998
2 43590 51.6296 280.6006 0001692 96.8893 263.2300 15.77380047106088
Bhutan 1
1 43591U 98067PF 20170.67480058 .00032500 00000-0 19426-3 0 9995
2 43591 051.6360 279.8451 0001861 109.2904 250.8298 15.77553501106103
SiriusSat 1
1 43595U 98067PG 20170.92167218 .00024629 00000-0 16658-3 0 9994
2 43595 051.6306 283.7024 0001558 032.6770 327.4326 15.74891955105253
SiriusSat 2
1 43596U 98067PH 20170.92011721 .00024857 00000-0 16891-3 0 9994
2 43596 051.6318 284.5185 0001893 036.3543 323.7585 15.74777372105246
Tanusha-3
1 43597U 98067PJ 20170.86951175 .00066421 00000-0 25912-3 0 9991
2 43597 051.6281 271.1455 0003386 345.6389 014.4518 15.86418205105410
SurfSat
1 43614U 18070B 20170.90086007 .00001963 00000-0 50601-4 0 9999
2 43614 093.0201 155.1850 0014170 342.5605 017.5160 15.39201455098707
CP-7 DAVE
1 43615U 18070C 20170.67234262 .00001870 00000-0 48453-4 0 9991
2 43615 093.0204 155.0809 0014340 342.8966 017.1803 15.39054929098663
ELFIN-B
1 43616U 18070D 20170.90662292 .00002500 00000-0 61871-4 0 9996
2 43616 093.0160 155.1205 0014668 343.7701 016.3082 15.40408873098748
ELFIN-A
1 43617U 18070E 20170.67996776 .00003229 00000-0 79405-4 0 9999
2 43617 093.0212 155.5395 0013892 341.7755 018.3000 15.40594745098719
STARS-Me Mother
1 43640U 98067PQ 20170.82952793 .00009770 00000-0 99581-4 0 9991
2 43640 051.6354 301.2529 0003957 039.2266 320.9016 15.65837007096948
CubeBel 1
1 43666U 18083E 20170.89088141 .00000656 00000-0 35295-4 0 9999
2 43666 097.4889 197.3430 0014943 002.0519 121.7017 15.18265472090837
Changshagaoxin
1 43669U 18083H 20170.86352238 .00000503 00000-0 28603-4 0 9996
2 43669 097.4763 195.5037 0010649 358.5285 001.5916 15.17297898090741
Ten-Koh
1 43677U 18084G 20170.56374486 .00000020 00000-0 78767-5 0 9993
2 43677 097.8830 287.6225 0016788 150.4737 209.7432 14.90290411089109
PO-101
1 43678U 18084H 20170.88297579 -.00000132 00000-0 -74488-5 0 9998
2 43678 097.8837 289.2854 0010172 164.9027 195.2507 14.91631661089239
IRVINE 01
1 43693U 18088D 20170.74042818 .00001652 00000-0 68625-4 0 9999
2 43693 085.0360 076.1626 0015592 290.4934 069.4634 15.22887510089042
QO-100
1 43700U 18090A 20170.85238762 .00000157 00000-0 00000-0 0 9996
2 43700 000.0130 341.3206 0000993 122.3413 136.5467 01.00269068005724
Reaktor Hello World
1 43743U 18096AA 20170.73887769 .00000878 00000-0 35348-4 0 9990
2 43743 097.4210 244.6063 0019383 121.0547 239.2598 15.27414991086594
MinXSS-2
1 43758U 18099A 20170.73658115 .00000435 00000-0 44262-4 0 9994
2 43758 097.7060 242.6565 0015735 179.6547 180.4687 14.95668329084142
AO-95
1 43770U 18099N 20170.84719006 -.00000219 00000-0 -14762-4 0 9991
2 43770 097.7055 242.2036 0014384 186.6886 173.4145 14.94991475084121
RANGE-B
1 43772U 18099Q 20170.73341967 .00000355 00000-0 37480-4 0 9999
2 43772 097.7122 242.6022 0014455 174.0834 186.0560 14.95178916084107
RANGE-A
1 43773U 18099R 20170.83787774 -.00000189 00000-0 -12086-4 0 9993
2 43773 097.6999 241.8347 0013672 173.3206 186.8200 14.94970610084115
MOVE-II
1 43780U 18099Y 20170.52815180 .00000246 00000-0 27433-4 0 9994
2 43780 097.7057 242.1010 0013514 184.7762 175.3332 14.95401431084073
SNUSat 2
1 43782U 18099AA 20170.87512887 .00000533 00000-0 53569-4 0 9990
2 43782 097.7052 242.4434 0013040 172.1466 187.9961 14.95258440084133
SnugLite
1 43784U 18099AC 20170.70958638 -.00000223 00000-0 -14991-4 0 9996
2 43784 097.7019 242.1066 0015028 181.7951 178.3219 14.95357944084127
